EW5069 Weather Reports


time (UTC)temp
C
wind
direction
speed
KPH
gust
KPH
rain 1hr
cm
rain 24hr
cm
rain mn
cm
humidity
%
barometer
mb
20260903193055 33 0.0 22.5 0.00 0.00 0.00 58 1012.5
20260903191549 34 0.0 19.3 0.00 0.00 0.00 58 1012.8
20260903190048 34 0.0 19.3 0.00 0.00 0.00 56 1013.1
20260903184545 33 0.0 20.9 0.00 0.00 0.00 59 1013.2
20260903183044 33 0.0 17.7 0.00 0.00 0.00 56 1013.3
20260903181551 33 360 0.0 22.5 0.00 0.00 0.00 59 1013.4
20260903180055 33 0.0 17.7 0.00 0.00 0.00 59 1013.3
20260903174541 33 0.0 22.5 0.00 0.00 0.00 56 1013.4
20260903173038 33 0.0 20.9 0.00 0.00 0.00 60 1013.3
20260903171535 32 0.0 24.1 0.00 0.00 0.00 62 1013.4
20260903170100 32 0.0 20.9 0.00 0.00 0.00 62 1013.5
20260903164536 32 0.0 20.9 0.00 0.00 0.00 63 1013.6
20260903163027 32 0.0 19.3 0.00 0.00 0.00 64 1013.9
20260903161528 32 0.0 19.3 0.00 0.00 0.00 65 1014.1
20260903160025 31 0.0 19.3 0.00 0.00 0.00 67 1014.1
20260903154516 31 0.0 24.1 0.00 0.00 0.00 69 1014.3
20260903153013 30 0.0 24.1 0.00 0.00 0.00 69 1014.3
20260903151511 30 0.0 25.7 0.00 0.00 0.00 70 1014.2
20260903150011 30 0.0 27.4 0.00 0.00 0.00 72 1014.1
20260903144504 29 0.0 24.1 0.00 0.00 0.00 73 1014.2
20260903143101 29 0.0 20.9 0.00 0.00 0.00 73 1014.1
20260903141555 28 0.0 17.7 0.00 0.00 0.00 74 1014.0
20260903140059 28 0.0 20.9 0.00 0.00 0.00 76 1014.0
20260903134547 27 360 0.0 17.7 0.00 0.00 0.00 77 1014.1
20260903133044 27 0.0 17.7 0.00 0.00 0.00 79 1014.2
20260903131539 26 0.0 14.5 0.00 0.00 0.00 82 1014.4
20260903130034 26 0.0 14.5 0.00 0.00 0.00 83 1014.5
20260903124530 25 0.0 14.5 0.00 0.00 0.00 84 1014.5
20260903123034 25 0.0 12.9 0.00 0.00 0.00 85 1014.5
20260903121521 24 0.0 12.9 0.00 0.00 0.00 86 1014.5
20260903120017 24 0.0 8.0 0.00 0.00 0.00 86 1014.5
20260903114513 23 0.0 9.7 0.00 0.00 0.00 87 1014.5
20260903113020 23 0.0 9.7 0.00 0.00 0.00 87 1014.4
20260903111508 23 0.0 9.7 0.00 0.00 0.00 87 1014.3
20260903110006 23 0.0 9.7 0.00 0.00 0.00 87 1014.3
20260903104505 23 0.0 9.7 0.00 0.00 0.00 87 1014.1
20260903103004 23 0.0 8.0 0.00 0.00 0.00 88 1014.0
20260903101501 23 0.0 8.0 0.00 0.00 0.00 87 1013.9
20260903100104 23 0.0 8.0 0.00 0.00 0.00 87 1014.0
20260903094600 23 0.0 8.0 0.00 0.00 0.00 86 1013.9
20260903093100 24 0.0 8.0 0.00 0.00 0.00 86 1013.9
20260903091555 24 0.0 8.0 0.00 0.00 0.00 85 1013.8
20260903090052 25 0.0 9.7 0.00 0.00 0.00 84 1013.8
20260903084550 25 0.0 14.5 0.00 0.00 0.00 84 1013.6
20260903083048 25 0.0 14.5 0.00 0.00 0.00 83 1013.6
20260903081548 25 0.0 14.5 0.00 0.00 0.00 83 1013.6
20260903080049 25 0.0 16.1 0.00 0.00 0.00 83 1013.5
20260903074557 25 0.0 16.1 0.00 0.00 0.00 83 1013.5
20260903073047 25 0.0 16.1 0.00 0.00 0.00 83 1013.5
20260903071547 25 0.0 14.5 0.00 0.00 0.00 83 1013.5
20260903070046 25 0.0 14.5 0.00 0.00 0.00 84 1013.4
20260903064544 25 0.0 14.5 0.00 0.00 0.00 85 1013.5
20260903063044 25 0.0 14.5 0.00 0.00 0.00 86 1013.5
20260903061542 25 0.0 14.5 0.00 0.00 0.00 86 1013.6
20260903060041 25 0.0 12.9 0.00 0.00 0.00 86 1013.6
20260903054540 25 0.0 14.5 0.00 0.00 0.00 85 1013.6
20260903053038 25 0.0 17.7 0.00 0.00 0.00 85 1013.5
20260903051540 26 0.0 16.1 0.00 0.00 0.00 84 1013.4
20260903050036 26 0.0 16.1 0.00 0.00 0.00 84 1013.3
20260903044535 26 0.0 16.1 0.00 0.00 0.00 84 1013.2
20260903043031 26 0.0 14.5 0.00 0.00 0.00 85 1013.1
20260903041531 26 0.0 14.5 0.00 0.00 0.00 85 1013.2
20260903040028 26 0.0 14.5 0.00 0.00 0.00 85 1013.2
20260903034533 26 0.0 12.9 0.00 0.00 0.00 85 1013.2
20260903033033 26 0.0 9.7 0.00 0.00 0.00 86 1013.3
20260903031532 26 0.0 8.0 0.00 0.00 0.00 85 1013.5
20260903030030 26 0.0 9.7 0.00 0.00 0.00 84 1013.4
20260903024526 26 0.0 8.0 0.00 0.00 0.00 84 1013.6
20260903023025 26 0.0 8.0 0.00 0.00 0.00 84 1013.5
20260903021533 27 0.0 9.7 0.00 0.00 0.00 84 1013.5
20260903020023 26 0.0 9.7 0.00 0.00 0.00 84 1013.5
20260903014521 27 0.0 14.5 0.00 0.00 0.00 83 1013.4
20260903013021 27 0.0 16.1 0.00 0.00 0.00 82 1013.3
20260903011519 27 0.0 12.9 0.00 0.00 0.00 81 1013.2
20260903010019 28 0.0 8.0 0.00 0.00 0.00 79 1013.1
20260903004527 28 0.0 8.0 0.00 0.00 0.00 78 1012.9
20260903003018 28 0.0 6.4 0.00 0.00 0.00 78 1012.9
20260903001517 29 0.0 9.7 0.00 0.00 0.00 77 1013.0
20260903000017 30 0.0 8.0 0.00 0.00 0.00 77 1013.0
20260902234517 30 0.0 8.0 0.00 0.00 0.00 77 1012.9
20260902233017 30 0.0 8.0 0.00 0.00 0.00 77 1012.9
20260902231518 31 0.0 8.0 0.00 0.00 0.00 76 1012.9
20260902230015 31 0.0 12.9 0.00 0.00 0.00 73 1012.9
20260902224514 31 0.0 12.9 0.00 0.00 0.00 71 1012.9
20260902223015 32 0.0 17.7 0.00 0.00 0.00 69 1013.0
20260902221517 32 0.0 17.7 0.00 0.00 0.00 68 1013.0
20260902220013 32 360 0.0 17.7 0.00 0.00 0.00 66 1012.9
20260902214512 32 0.0 19.3 0.00 0.00 0.00 66 1012.9
20260902213013 32 0.0 22.5 0.00 0.00 0.00 67 1012.9
20260902211512 33 0.0 20.9 0.00 0.00 0.00 64 1012.9
20260902210009 33 0.0 19.3 0.00 0.00 0.00 63 1013.0
20260902204507 33 0.0 19.3 0.00 0.00 0.00 61 1013.1
20260902203005 33 0.0 24.1 0.00 0.00 0.00 61 1013.2
20260902201503 33 0.0 20.9 0.00 0.00 0.00 61 1013.2
20260902200100 33 0.0 20.9 0.00 0.00 0.00 61 1013.3
20260902194557 33 0.0 24.1 0.00 0.00 0.00 58 1013.5